Regional Weather Roundup
Issued by NWS

Home | Current Version | Previous Version | Text Only | Print | Product List | Glossary On
Versions: 1 2 3 4 5 6 7 8 9 10 11 12 13 14 15 16 17 18 19 20 21 22 23 24 25 26 27 28 29 30 31 32 33 34 35 36 37 38 39 40 41 42 43 44 45 46 47 48 49 50
329
ASUS43 KDTX 112210
RWRMI
MICHIGAN HOURLY REGIONAL WEATHER ROUNDUP
NATIONAL WEATHER SERVICE DETROIT/PONTIAC MI
500 PM EST MON DEC 11 2017

NOTE: "FAIR" INDICATES FEW OR NO CLOUDS BELOW 12,000 FEET WITH NO
SIGNIFICANT WEATHER AND/OR OBSTRUCTION TO VISIBILITY.

MIZ047>049-052>055-059>063-066>070-074>076-081>083-112300-
SOUTHEAST LOWER MICHIGAN

CITY           SKY/WX    TMP DP  RH WIND       PRES   REMARKS
ADRIAN         CLOUDY    30  24  78 S7        29.77F WCI  23
ALMA           CLOUDY    28  27  94 S5        29.74F WCI  23
ANN ARBOR      LGT SNOW  28  26  92 SE6       29.77F VSB 3/4 WCI  22
BAD AXE        FLURRIES  22  19  87 S8        29.80F WCI  12
CARO           CLOUDY    23  20  87 SE7       29.77F WCI  15
DETROIT CITY   CLOUDY    29  24  82 S9        29.80F WCI  20
DETROIT        LGT SNOW  31  25  78 SE7       29.80F WCI  24
FLINT          CLOUDY    27  23  85 SE8       29.77F WCI  19
GROSSE ILE     LGT SNOW  31  27  84 S12       29.79F WCI  21
HILLSDALE      CLOUDY    30  23  74 SE8       29.71F WCI  23
HOWELL         CLOUDY    28  26  89 S8        29.75F WCI  20

CITY           SKY/WX    TMP DP  RH WIND       PRES   REMARKS
JACKSON        HVY SNOW  28  25  88 E6        29.73F VSB 1/4 WCI  22
LAMBERTVILLE   CLOUDY    32  24  72 CALM      29.77F
LANSING        CLOUDY    30  24  78 S9        29.74F WCI  22
LAPEER         CLOUDY    24  22  91 SE6       29.78F WCI  17
MASON          CLOUDY    30  23  74 S9        29.74F WCI  22
MONROE         FLURRIES  31  25  80 SE6       29.79F WCI  25
MT. CLEMENS    CLOUDY    29  28  98 S9        29.78F WCI  20
PONTIAC        CLOUDY    27  26  96 S7        29.76F FOG     WCI  19
PORT HOPE        N/A     22  16  78 S9        29.79F WCI  12
PORT HURON     CLOUDY    27  23  86 SE7       29.81F FOG     WCI  19
TRI CITIES     CLOUDY    26  24  92 SE7       29.76F WCI  18
MIDLAND        CLOUDY    26  22  85 CALM      29.75F
TROY           CLOUDY    29  26  88 S7        29.80F WCI  22
SAGINAW HB     CLOUDY    27  23  86 SE9       29.76F WCI  17
$$
MIZ043>046-050>051-056>058-064>065-071>073-077>080-112300-
SOUTHWEST LOWER MICHIGAN

CITY           SKY/WX    TMP DP  RH WIND       PRES   REMARKS
BATTLE CREEK   LGT SNOW  29  27  92 SE5       29.73S FOG     WCI  24
BENTON HARBOR  CLOUDY    33  24  69 SE7       29.69F WCI  27
BIG RAPIDS     CLOUDY    25  23  94 SE5       29.70S FOG     WCI  19
COLDWATER      CLOUDY    31  25  78 SE7       29.72F WCI  24
FREMONT        CLOUDY    29  27  94 CALM      29.71S
HOLLAND        CLOUDY    32  23  69 SE6       29.72R WCI  26
GRAND RAPIDS   CLOUDY    30  25  81 SE5       29.72S WCI  25
IONIA          CLOUDY    30  24  79 S6        29.72S WCI  24
KALAMAZOO      CLOUDY    30  25  81 SE5       29.72S WCI  25
LUDINGTON      CLOUDY    27  25  94 CALM      29.72R FOG
MARSHALL       LGT SNOW  28  28  97 SE3       29.72F
MOUNT PLEASANT CLOUDY    26  22  86 SE6       29.73F WCI  19
MUSKEGON       CLOUDY    30  24  78 SE5       29.73R WCI  25
SOUTH HAVEN    LGT SNOW  31  28  88 SE5       29.71S WCI  26
$$
MIZ016>042-112300-
NORTHERN LOWER MICHIGAN

CITY           SKY/WX    TMP DP  RH WIND       PRES   REMARKS
ALPENA         LGT SNOW  21  19  92 S5        29.76F FOG     WCI  15
BEAVER ISLAND  LGT SNOW  28  26  93 S6        29.68F WCI  21
BELLAIRE       LGT SNOW  23  21  93 S5        29.73S WCI  17
CADILLAC       CLOUDY    21  21  98 S6        29.68S FOG     WCI  14
CHARLEVOIX     LGT SNOW  23  20  89 SE6       29.73F WCI  16
FRANKFORT      LGT SNOW  28  27  98 E3        29.71S
GAYLORD        LGT SNOW  19  15  84 S8        29.68F FOG     WCI   9
GRAYLING       LGT SNOW  20  18  91 SE5       29.71F WCI  14
HARBOR SPRINGS LGT SNOW  21  19  94 E5        29.71F WCI  14
HOUGHTON LAKE  CLOUDY    20  18  92 S5        29.71F FOG     WCI  13
MANISTEE       MIX PCPN  27  25  93 CALM      29.72S FOG
OSCODA         LGT SNOW  23  19  85 S6        29.77F WCI  16
PELLSTON       LGT SNOW  21  18  88 SE8       29.72F VSB 3/4 WCI  11
ROGERS CITY    LGT SNOW  20  17  89 S7        29.75F WCI  11
TRAVERSE CITY  FRZ DRZL  24  20  84 VRB3      29.71F
$$
MIZ007>008-015-112300-
EASTERN UPPER MICHIGAN

CITY           SKY/WX    TMP DP  RH WIND       PRES   REMARKS
KINROSS        LGT SNOW  19  18  93 E6        29.71F VSB 3/4 WCI  11
MACKINAC ISLAN LGT SNOW  23  19  84 S12G18    29.71F VSB 3/4 WCI  11
NEWBERRY       LGT SNOW  20  19  96 NE3       29.68F
S. S. MARIE    SNOW      17  14  88 E8        29.72F VSB 1/2 WCI   7
MUNISING         N/A     25  23  92 CALM      29.69F
$$
MIZ004>006-011>014-085-112300-
CENTRAL UPPER MICHIGAN

CITY           SKY/WX    TMP DP  RH WIND       PRES   REMARKS
MANISTIQUE     FLURRIES  23  18  81 CALM      29.70R
ESCANABA       CLOUDY    25  20  81 W9        29.72S WCI  15
MENOMINEE      FLURRIES  25  22  88 NW6       29.76R WCI  18
SAWYER-GWINN   FLURRIES  23  19  86 W6        29.68S WCI  16
$$
MIZ001>003-009>011-084-112300-
WESTERN UPPER MICHIGAN

CITY           SKY/WX    TMP DP  RH WIND       PRES   REMARKS
IRON MOUNTAIN  CLOUDY    24  19  81 W7        29.70S WCI  16
HOUGHTON       LGT SNOW  21  13  71 NW24G32   29.76R WCI   4
COPPER HARBOR    N/A     24  19  81 NE29G43   29.75R WCI   7
IRONWOOD       FLURRIES  22  15  75 NW14G22   29.86R WCI   9
$$

ABBREVIATIONS USED IN REMARKS
   TC - TEMPERATURE IN CELSIUS
  WCI - WIND CHILL INDEX
   HX - HEAT INDEX
  VSB - VISIBILITY





USA.gov is the U.S. government's official web portal to all federal, state and local government web resources and services.